User: anonymous
Location: Ostrava
(49.8330°N, 18.2830°E)
Time: 08:13:03
(UTC+02:00)
Language:

NOAA 19 - Orbit

View from above orbital plane
View from above orbital plane
View from above satellite
View from above satellite

Ground track
Ground track

The orbit data is extracted from the following two-line orbital elements,

1 33591U 09005A   14113.43155192  .00000281  00000-0  17873-3 0  2088
2 33591 098.9411 058.6450 0012879 274.2483 233.0585 14.11698194268264
Epoch (UTC): 23 April 2014 10:21:26
Eccentricity: 0.0012879
inclination: 98.9411°
perigee height: 844 km
apogee height: 863 km
right ascension of ascending node: 58.6450°
argument of perigee: 274.2483°
revolutions per day: 14.11698194
mean anomaly at epoch: 233.0585°
orbit number at epoch: 26826

The dashed part of the orbit path shows where the satellite is in the earth's shadow,  

DLR